www.pogodaiklimat.ru
Время
и дата
17:04 23.10
17:51 23.10
18:08 23.10
18:27 23.10
18:51 23.10
19:11 23.10
19:51 23.10
20:51 23.10
21:51 23.10
22:51 23.10
23:44 23.10
23:51 23.10
00:08 24.10
00:33 24.10
00:51 24.10
01:51 24.10
02:51 24.10
03:51 24.10
04:51 24.10
05:51 24.10
06:51 24.10
07:15 24.10
07:51 24.10
08:51 24.10
09:51 24.10
10:51 24.10
11:46 24.10
11:51 24.10
12:51 24.10
13:51 24.10
14:09 24.10
14:51 24.10
15:51 24.10
16:51 24.10
17:51 24.10
18:51 24.10
19:51 24.10
20:51 24.10
21:51 24.10
22:51 24.10
23:51 24.10
00:51 25.10
01:51 25.10
02:51 25.10
03:51 25.10
04:51 25.10
05:51 25.10
06:51 25.10
Ветер
(напр.,м/с)
Видим. Явления Облачность Т
(С)
Тd
(С)
f
(%)
Тe
(С)
Тes
(С)
Комфортность P
(гПа)
Po
(гПа)
Тmin
(С)
Tmax
(С)
R
(мм)
R24
(мм)
S
(см)
штиль 0 16 км 10/10 270 м +17.8 +15.6 87 +18 +18 1014.5
штиль 0 16 км 10/10 270 м +17.8 +15.6 87 +18 +18 1019.2 1014.5
штиль 0 16 км 10/10 300 м +17.2 +15.0 87 +17 +17 1014.5
ЮВ 1 16 км 10/10 270 м +17.8 +15.0 84 +18 +18 1014.2
нст 1 16 км 10/10 270 м +17.2 +15.0 87 +18 +18 1018.8 1013.9 +17.2 +20.6
Ю 1 16 км 10/10 300 м +17.2 +15.0 87 +18 +18 1013.9
нст 1 16 км 10/10 390 м +17.2 +15.0 87 +18 +18 1018.2 1013.2
нст 1 16 км 10/10 450 м +17.8 +15.0 84 +18 +18 1018.0 1013.2
штиль 0 14 км 10/10 420 м +17.2 +15.0 87 +17 +17 1017.9 1013.2
нст 1 16 км 10/10 360 м +17.2 +15.0 87 +18 +18 1017.1 1012.2
штиль 0 16 км 10/10 480 м +17.2 +15.0 87 +17 +17 1011.8
штиль 0 16 км 10/10 480 м +17.2 +15.0 87 +17 +17 1016.6 1011.8
штиль 0 16 км 10/10 420 м +17.2 +15.0 87 +17 +17 1011.8
нст 1 16 км 10/10 480 м +17.2 +14.4 84 +18 +18 1011.5
нст 1 16 км 10/10 510 м +17.8 +14.4 80 +18 +18 1016.2 1011.5 +17.2 +17.8
штиль 0 16 км 10/10 630 м +17.8 +14.4 80 +18 +18 1015.8 1010.8
нст 1 16 км 10/10 450 м +17.8 +14.4 80 +18 +18 1015.4 1010.5
нст 1 16 км 10/10 660 м +17.8 +14.4 80 +18 +18 1014.9 1010.1
штиль 0 16 км 10/10 660 м +17.2 +15.0 87 +17 +17 1014.5 1009.8
нст 1 16 км 10/10 600 м +17.8 +14.4 80 +18 +18 1014.0 1009.1
штиль 0 16 км 10/10 510 м +17.8 +15.0 84 +18 +18 1013.5 1008.8 +17.2 +17.8
16 км 10/10 390 м +17.2 +15.0 87 +17 +17 1008.8
штиль 0 16 км 10/10 360 м +17.2 +15.0 87 +17 +17 1014.0 1009.1
ЮЗ 1 16 км 10/10 330 м +17.2 +15.0 87 +17 +17 1013.8 1009.1
штиль 0 14 км 10/10 330 м +17.8 +15.0 84 +18 +18 1013.5 1008.8
ЮЗ 2 14 км 10/10 330 м +17.8 +15.0 84 +18 +18 1013.0 1008.1
штиль 0 16 км 10/10 330 м +19.0 +16.0 83 +20 +20 1007.5
нст 1 16 км 10/10 360 м +19.4 +15.6 79 +22 +22 комфорт 1012.2 1007.5
штиль 0 16 км 10/10 600 м +19.4 +16.1 81 +21 +21 комфорт 1011.7 1006.8 +17.2 +19.4
З 2 16 км 8/8 630 м +20.6 +13.9 65 +23 +24 комфорт 1011.9 1007.1
З 1 16 км 5/5 810 м +20.0 +12.8 63 +22 +24 комфорт 1007.1
СЗ 1 16 км 5/5 1470 м +20.6 +11.7 57 +23 +25 комфорт 1012.2 1007.5
нст 1 16 км 10/10 1500 м +19.4 +10.0 55 +21 +21 комфорт 1012.8 1008.1
З 2
{4}
16 км 10/10 1140 м +16.7 +7.2 53 +16 +16 1013.7 1008.8
СЗ 2
{4}
16 км 2/2 1320 м +15.6 +5.6 51 +15 +15 1014.7 1009.8
СЗ 2
{4}
16 км ясно +13.9 +4.4 53 +13 +13 1015.5 1010.8 +13.9 +20.6
СЗ 1 16 км ясно +13.3 +3.9 53 +13 +13 1016.6 1011.8
СЗ 2 16 км ясно +11.7 +2.8 54 +10 +10 1017.5 1012.5
16 км ясно +10.6 +2.8 58 +10 +10 1018.5 1013.9
нст 1 16 км ясно +9.4 +2.2 61 +8 +8 1019.0 1014.2
нст 1 16 км ясно +8.9 +2.2 63 +7 +7 1018.9 1014.2
нст 1 16 км ясно +8.3 +2.2 65 +7 +7 1019.4 1014.5 +8.3 +13.9
нст 1 16 км ясно +8.3 +2.2 65 +7 +7 1020.1 1015.2
СВ 1 16 км ясно +8.3 +1.7 63 +6 +6 1020.5 1015.5
СВ 2 16 км ясно +8.3 -0.6 53 +6 +6 1021.1 1016.2
СВ 2 16 км ясно +7.8 -0.6 55 +4 +4 1021.8 1016.9
нст 1
{4}
16 км ясно +7.8 -0.6 55 +5 +5 1022.6 1017.6
нст 1 16 км ясно +7.2 0.0 60 +5 +5 1023.4 1018.6 +7.2 +8.9
Местоположение метеостанции Central Park: широта 40.7833 долгота -73.9667 высота над уровнем моря 47 м.
В архиве по умолчанию представлена погода в Нью-Йорк Сити за последние 1-2 суток. Обновление информации о фактической погоде в базе происходит ежечасно! Архивные данные за месяц целиком и за предыдущие месяцы Вы можете получить, выбрав интересующий диапазон дат из раскрывающегося списка и нажав кнопку "Ввод!".
Внимание! Архив погоды МЕТАР в базе сайта по станциям, не включенным в климатический монитор, хранится не более 60 дней. Нет смысла пытаться выбрать более раннюю дату.
*Определитесь, кто Вы:
Внимание! Время в таблицах - местное (без учета летнего времени). Для получения всемирного времени необходимо вычесть поправку, которая равна -5 ч.
Смотрите также архив погоды в соседних городах и на ближайших метеорологических станциях:
Партнеры нашего сайта:      
Пояснения к столбцам:
  • Ветер - указаны скорость ветра в м/с - средняя за 10 мин, порывы в срок и между сроками (в фигурных скобках) и направление, откуда дует ветер: С - северный,
  • СВ - северо-восточный, В - восточный, ЮВ - юго-восточный, Ю - южный, ЮЗ - юго-западный, З - западный, СЗ - северо-западный.
  • Видимость - горизонтальная дальность видимости в метрах или километрах. При видимости от 1 до 10 км при отсутствии осадков обычно наблюдается дымка, при ухудшении видимости до 1 км и менее - туман. В сухую погоду видимость может ухудшаться дымом, пылью или мглою.
  • Явления - указаны атмосферные явления, наблюдавшиеся в срок или в последний час перед сроком; фигурными скобками обозначены явления, наблюдавшиеся между сроками (за 1-3 часа до срока); квадратными скобками обозначены град или гололедные отложения с указанием их диаметра в мм.
  • Облачность - указаны через наклонную черту общая и нижняя облачность в баллах и высота нижней границы облаков в метрах; квадратными скобками обозначены формы облаков: Ci - перистые, Cs - перисто-слоистые, Cc - перисто-кучевые, Ac - высококучевые, As - высокослоистые, Sc - слоисто-кучевые, Ns - слоисто-дождевые, Cu - кучевые, Cb - кучево-дождевые. Подробнее классификацию облаков см. в Атласе облаков (PDF).
  • T - Температура воздуха - температура, измеренная на высоте 2 м над землей.
  • Td - Температура точки росы - температура, при понижении до которой содержащийся в воздухе водяной пар достигнет насыщения.
  • f - Относительная влажность воздуха - влажноcть воздуха, измеренная на высоте 2 м над землей.
  • Te - Эффективная температура - температура, которую ощущает одетый по сезону человек в тени. Характеристика душности погоды. При расчете учитывается влияние влажности воздуха и скорости ветра на теплоощущения человека.
  • Tes - Эффективная температура на солнце - температура, которую ощущает человек, с поправкой на солнечный нагрев. Характеристика знойности погоды. Зависит от высоты солнца над горизонтом, облачности и скорости ветра. Ночью, в пасмурную погоду, а также при ветре 12 м/с и более поправка равна нулю.
  • P - Атмосферное давление - приведенное к уровню моря атмосферное давление.
  • Po - Атмосферное давление - измеренное на уровне метеостанции атмосферное давление.
  • Tmin - Минимальная температура - минимум температуры воздуха на высоте 2 м над землей.
  • Tmax - Максимальная температура - максимум температуры воздуха на высоте 2 м над землей.
  • R - Количество осадков - Количество выпавших осадков за период времени, мм. При наведении курсора мыши на число - период времени, за который выпало указанное количество осадков.
  • R24 - Количество осадков - Количество выпавших осадков за 24 часа, мм.
  • S - Снежный покров - Высота снежного покрова, см. При наведении курсора мыши на число - состояние снежного покрова и степень покрытия местности в баллах.